Location: Devore Heights
(34.2372°N, 117.4156°W)
Time: 18:07:00
(UTC+00:00)

S-56A Canister/Altair - Pass Details

Date: 17 September 2024
Orbit: 636 x 2487 km, 38.9° (Epoch: 14 October)

Event Time Altitude Azimuth Distance (km) Brightness Sun altitude
Rises 04:46:17 0° 285° (WNW) 3,579 11.9 -34.7°
Reaches altitude 10° 04:48:31 10° 288° (WNW) 2,811 11.1 -35.1°
Enters shadow 04:55:09 69° 0° (N) 1,419 8.7 -36.3°
Maximum altitude 04:55:25 69° 12° (NNE) 1,429 - -36.3°
Drops below altitude 10° 05:06:06 10° 95° (E) 4,233 - -38.1°
Sets 05:10:11 0° 98° (E) 5,499 - -38.8°
